Location: Noral
(54.6536°N, 112.3633°W)
Time: 04:51:07
(UTC+00:00)

ISS - Visible Passes

Search period start: 27 November 2021 00:00
Search period end: 07 December 2021 00:00
Orbit: 417 x 423 km, 51.6° (Epoch: 27 November)

Date Brightness Start Highest point End Pass type
(mag) Time Alt. Az. Time Alt. Az. Time Alt. Az.
27 Nov -2.5 00:34:24 10° SW 00:37:30 33° SSE 00:39:44 16° ESE visible
27 Nov -2.0 02:10:41 10° WSW 02:12:43 31° WSW 02:12:43 31° WSW visible
27 Nov -2.1 23:47:33 10° SW 23:50:28 27° SSE 23:53:23 10° E visible
28 Nov -3.3 01:23:36 10° WSW 01:26:55 50° S 01:27:25 45° SE visible
28 Nov -0.2 03:00:16 10° W 03:00:24 11° W 03:00:24 11° W visible
29 Nov -3.0 00:36:32 10° WSW 00:39:49 46° S 00:42:06 17° ESE visible
29 Nov -1.8 02:13:06 10° W 02:15:05 29° WSW 02:15:05 29° WSW visible
29 Nov -2.7 23:49:29 10° SW 23:52:42 40° SSE 23:55:55 10° E visible
30 Nov -3.2 01:25:57 10° W 01:29:15 49° S 01:29:47 44° SSE visible
01 Dec -3.1 00:38:48 10° WSW 00:42:07 51° S 00:44:30 17° ESE visible
01 Dec -1.6 02:15:32 10° W 02:17:29 25° WSW 02:17:29 25° WSW visible
01 Dec -3.0 23:51:39 10° WSW 23:54:57 50° S 23:58:16 10° E visible
02 Dec -2.7 01:28:18 10° W 01:31:30 39° SSW 01:32:15 34° SSE visible
03 Dec -2.8 00:41:04 10° W 00:44:21 45° S 00:47:04 14° ESE visible
03 Dec -1.2 02:18:07 10° W 02:20:03 19° SW 02:20:03 19° SW visible
03 Dec -2.9 23:53:52 10° W 23:57:10 49° S 00:00:28 10° ESE visible
04 Dec -1.8 01:30:43 10° W 01:33:36 26° SSW 01:34:58 20° SSE visible
05 Dec -2.1 00:43:22 10° W 00:46:27 32° SSW 00:49:32 10° SE visible
05 Dec -0.6 02:21:38 10° SW 02:22:32 11° SW 02:23:01 11° SSW visible
05 Dec -2.3 23:56:04 10° W 23:59:16 39° SSW 00:02:27 10° SE visible
06 Dec -0.9 01:33:27 10° WSW 01:35:29 15° SW 01:37:30 10° S visible
